Flag for Sweden Weather past 2 weeks in Malmö, Sweden

Now
39 °F

Clear.


Feels Like: 34 °F
Forecast: 40 / 53 °F
Wind: 7 mph from Northwest

Location: Malmo / Sturup

Current Time: Apr 28, 2015 at 3:21:35 AM

Latest Report: Apr 28, 2015 at 2:50 AM


Visibility: 10 mi

Pressure: 29.77 "Hg

Humidity: 81%

Dew point: 34 °F

Location of MalmöLocation

Historic Weather in Malmö — Graph

°F

Malmö temperature yesterday

Maximum temperature yesterday: 54 °F (at 4:20 PM)
Minimum temperature yesterday: 37 °F (at 6:20 AM)
Average temperature yesterday: 44 °F

Past Weeks' High & Low Weather Summary

 TemperatureHumidityPressure
High59 °F (Apr 15, 3:20 PM)100% (Apr 13, 3:50 AM)30.30 "Hg (Apr 13, 3:50 AM)
Low30 °F (Apr 18, 4:20 AM)38% (Apr 19, 1:20 PM)29.65 "Hg (Apr 15, 4:50 PM)
Average46 °F76%29.96 "Hg
* Reported Apr 13 2:20 AM — Apr 28 2:20 AM, Malmö, Weather by CustomWeather, © 2015

Note: Actual official high and low records may vary slightly from our data, if they occured in-between our weather recording intervals... More about our weather records

Advertising

Malmö weather history for previous 24 hours

 ConditionsComfort  
Time TempWeatherWind HumidityBarometerVisibility
2:20 AM
Tue, Apr 28
39 °FClear.7 mph87%29.77 "Hg10 mi
1:50 AM41 °FClear.6 mph81%29.77 "Hg10 mi
1:20 AM39 °FClear.6 mph87%29.77 "Hg10 mi
12:50 AM41 °FClear.7 mph81%29.74 "Hg10 mi
12:20 AM39 °FClear.8 mph81%29.74 "Hg10 mi
11:50 PM
Mon, Apr 27
39 °FClear.3 mph81%29.74 "Hg10 mi
11:20 PM39 °FClear.5 mph81%29.74 "Hg10 mi
10:50 PM39 °FClear.3 mph81%29.74 "Hg10 mi
10:20 PM39 °FClear.1 mph81%29.74 "Hg10 mi
9:50 PM41 °FClear.3 mph70%29.71 "Hg10 mi
9:20 PM41 °FSunny.5 mph70%29.71 "Hg10 mi
8:50 PM45 °FPassing clouds.5 mph61%29.71 "HgN/A
8:20 PM45 °FSunny.6 mph61%29.71 "Hg10 mi
7:50 PM46 °FSunny.8 mph53%29.71 "Hg10 mi
7:20 PM48 °FSunny.9 mph46%29.71 "Hg10 mi
6:50 PM50 °FSunny.13 mph40%29.71 "Hg10 mi
6:20 PM50 °FSunny.15 mph43%29.71 "Hg10 mi
5:50 PM52 °FSunny.15 mph41%29.71 "Hg10 mi
5:20 PM52 °FSunny.15 mph47%29.71 "Hg10 mi
4:50 PM52 °FPassing clouds.14 mph54%29.68 "HgN/A
4:20 PM54 °FPassing clouds.13 mph47%29.68 "HgN/A
3:50 PM52 °FPassing clouds.13 mph47%29.68 "HgN/A
3:20 PM52 °FScattered clouds.12 mph62%29.71 "HgN/A
2:50 PM50 °FBroken clouds.10 mph67%29.68 "HgN/A
2:20 PM50 °FBroken clouds.8 mph67%29.68 "HgN/A
1:50 PM50 °FBroken clouds.10 mph58%29.68 "HgN/A
1:20 PM48 °FPassing clouds.9 mph71%29.68 "HgN/A
12:50 PM48 °FSunny.10 mph66%29.68 "Hg10 mi
12:20 PM48 °FPassing clouds.7 mph66%29.68 "HgN/A
11:50 AM48 °FSunny.7 mph66%29.68 "Hg10 mi
11:20 AM46 °FPassing clouds.6 mph71%29.68 "HgN/A
10:50 AM46 °FSunny.6 mph76%29.68 "Hg10 mi
10:20 AM45 °FSunny.5 mph81%29.68 "Hg10 mi
9:50 AM45 °FSunny.5 mph81%29.68 "Hg10 mi
9:20 AM43 °FSunny.6 mph87%29.68 "Hg10 mi
8:50 AM43 °FSunny.5 mph87%29.68 "Hg10 mi
8:20 AM41 °FScattered clouds.5 mph93%29.68 "HgN/A
7:50 AM41 °FSunny.6 mph93%29.68 "Hg10 mi
7:20 AM39 °FSunny.6 mph100%29.68 "Hg10 mi
6:50 AM39 °FSunny.5 mph100%29.68 "Hg10 mi
6:20 AM37 °FClear.6 mph100%29.68 "Hg10 mi
5:20 AM39 °FClear.5 mph93%29.68 "Hg10 mi
4:50 AM39 °FClear.5 mph93%29.68 "Hg10 mi
4:20 AM39 °FClear.7 mph93%29.68 "Hg10 mi
3:50 AM39 °FClear.7 mph93%29.68 "Hg10 mi
3:20 AM39 °FPartly cloudy.6 mph93%29.68 "HgN/A
Weather by CustomWeather, © 2015

See weather overviewHow to use our weather pages